Погода в Новопрохладном

Россия / Республика Адыгея     44˚08′15″N   40˚17′12″E
темп.,
°C
ветер,
м/с
пор.,
м/с
влажн.,
%
обл.,
%
осадки,
мм/ч
давл.,
гПа
погр.,
м
17 января, вс
вс1700:00−4˚юв2393100 0.0 1011135
03:00−4˚юв1294100 0.1 100859
06:00−2˚вюв2396100 2.4 1003169
09:00−1˚вюв2394100 3.4 1000130
12:00+4˚вюв1198100 2.9 999131
15:00+4˚зюз1299100 7.7 998211
18:00+1˚зсз11100100 1.2 100022
21:00+1˚ююз11100100 5.7 100167
18 января, пн
пн1800:00ю1191100 0.4 100423
03:00−1˚зсз1291100 0.4 100772
06:00−3˚сз2498100 0.1 1010194
09:00−7˚сз2494100 0.3 1012275
12:00−4˚сз2388100 0.1 1014389
15:00−5˚сз2392100 0.4 1014449
18:00−6˚зюз0194100 0.5 101779
21:00−6˚ссз0194100 0.6 101827
19 января, вт
вт1900:00−6˚сз1295100 0.3 1019167
03:00−7˚ю229298 0.4 101983
06:00−8˚юз238158 0.0 101963
09:00−6˚ю128767 0.6 1020138
12:00−2˚зсз258388 0.7 1020672
15:00−2˚з5126889 1.1 10191897
18:00−6˚ссз229763 0.7 1021150
21:00−8˚с119682 1.6 1022149
20 января, ср
ср2000:00−9˚с019697 0.1 102367
03:00−9˚в119698 0.3 102381
06:00−9˚юв019598 0.3 102449
09:00−7˚ююв119199 0.5 1025157
12:00−4˚с1287100 0.4 1024374
15:00−5˚с2394100 2.3 1024371
18:00−7˚ссз1196100 1.4 1027108
21:00−8˚ю2289100 1.4 102870
21 января, чт
чт2100:00−8˚ю2380100 0.0 102854
03:00−8˚ю237881 0.0 102842
06:00−7˚ю338071 0.0 102874
09:00−3˚ю238185 0.0 1029102
12:00+1˚зсз127899 0.0 1029620
15:00+1˚с119298 0.1 1029271
18:00−3˚ю229377 0.0 103125
21:00−5˚ю238144 0.0 103138